Regional Weather Roundup
Issued by NWS Mobile, AL

Home | Current Version | Previous Version | Text Only | Print | Product List | Glossary On
Versions: 1 2 3 4 5 6 7 8 9 10 11 12 13 14 15 16 17 18 19 20 21 22 23 24 25 26 27
000
ASUS44 KMOB 241612
RWRMOB
REGIONAL WEATHER ROUNDUP
NATIONAL WEATHER SERVICE MOBILE AL
1100 AM CDT WED MAY 24 2017

NOTE: "FAIR" INDICATES FEW OR NO CLOUDS BELOW 12,000 FEET WITH NO
      SIGNIFICANT WEATHER AND/OR OBSTRUCTIONS TO VISIBILITY.

  * THESE STATIONS ARE PART OF THE UNIVERSITY OF SOUTH ALABAMA
    MESONET AND ARE NOT UNDER NWS OR FAA QUALITY CONTROL.

ALZ061>064-241700-
COASTAL ALABAMA

CITY           SKY/WX    TMP DP  RH WIND       PRES   REMARKS
MOBILE REG APT PTSUNNY   73  58  59 VRB7      29.67S
BROOKLEY FIELD FAIR      76  59  55 W13G21    29.66F
USA CAMPUS*      N/A     75  63  64 CALM      29.66F
DOG RIVER*     NOT AVBL


CITY           SKY/WX    TMP DP  RH WIND       PRES   REMARKS
GULF SHORES      N/A     74  65  75 W8        29.66S

$$

ALZ051>060-241700-
INTERIOR SOUTHWEST AND SOUTH CENTRAL ALABAMA

CITY           SKY/WX    TMP DP  RH WIND       PRES   REMARKS
GREENVILLE     FAIR      75  61  61 SW15G21   29.60F
EVERGREEN      CLOUDY    73  62  68 SW8       29.63S
ATMORE*          N/A     73  64  73 SW7       29.67S
ANDALUSIA/OPP  PTSUNNY   79  65  62 W10       29.61F
ANDALUSIA*       N/A     75  66  73 SW3       29.63S
FLORALA APT    PTSUNNY   76  65  68 VRB6      29.64S
FLORALA*         N/A     75  66  73 SW7       30.20F

$$

FLZ001>006-241700-
WESTERN FLORIDA PANHANDLE

CITY           SKY/WX    TMP DP  RH WIND       PRES   REMARKS
PENSACOLA      FAIR      81  66  60 W13       29.63S
NAS PENSACOLA  PTSUNNY   77  63  61 W8        29.63F
MILTON         PTSUNNY   77  66  68 W12       29.63F
WHTNG S FIELD  PTSUNNY   80  67  64 W8        29.63S


CITY           SKY/WX    TMP DP  RH WIND       PRES   REMARKS
JAY*             N/A     73  64  73 W10       29.65S
DUKE FIELD     PTSUNNY   78  64  62 W14G20    29.62R
CRESTVIEW      FAIR      78  64  61 W13G18    29.64S
VALPARAISO     PTSUNNY   78  63  61 W9        29.63R
DESTIN         FAIR      81  69  67 W8        29.63R

$$

MSZ076-079-241700-
INTERIOR SOUTHEAST MISSISSIPPI

CITY           SKY/WX    TMP DP  RH WIND       PRES   REMARKS
LEAKESVILLE*   NOT AVBL
AGRICOLA*        N/A     72  59  64 NW2       29.67

$$

MARINE OBSERVATIONS

STATION/POSITION TIME  TEMP    WIND        PRES    WAVE
                       AIR SEA DIR/SP/G            HT/PER
                 (UTC) (F)     (DEG/KT/KT) (MB)    (FT/S)
PASCAGOULA       1548   73     280/  9/ 12 1004.5S
PETIT BOIS ISLND 1548   72     280/ 14/ 17 1005.5S
GRAND BAY        1445   72     300/  9     1005.0R
KATRINA CUT      1530   72     300/  9     1004.4F
CEDAR POINT      1530   72     290/ 13     1004.4S
E DAUPHIN ISLAND 1600   72     270/ 11/ 12 1004.1F
MIDDLE BAY LIGHT 1530   72     270/ 11     1003.7F
USCG MOBILE BAY  1548   73 79  260/  7/ 10 1004.6F
STATE DOCKS      1542   77 77              1003.9F
MEAHER PARK      1530   72     250/ 11     1004.4S
FORT MORGAN      1548   73     270/ 11/ 13   N/A
12 S ORANGE BCH  1550   73 78  310/ 17/ 21 1003.5R   4/ 7
PENSACOLA BAY    1542   75 80              1003.8R
64 S DAUPHIN ISL 1550   74 78  300/ 14/ 17 1005.0R   4/ 7
67 S FORT MORGAN 1530   76        CALM     1004.7R

$$

SELECTED LOCATIONS ACROSS THE REGION

CITY           SKY/WX    TMP DP  RH WIND       PRES   REMARKS
NEW ORLEANS    FAIR      72  56  57 NW12      29.73R
GULFPORT       FAIR      75  55  49 W14       29.68R
PASCAGOULA AP  PTSUNNY   75  58  55 W5        29.67S
PASCAGOULA*    NOT AVBL
HATTIESBURG    FAIR      68  54  60 NW10      29.69R
LAUREL         NOT AVBL
MERIDIAN       PTSUNNY   69  56  62 NW9       29.64S
JACKSON        FAIR      68  55  63 NW14      29.66S
MONTGOMERY     RAIN      71  62  73 W9G18     29.59S
TROY           PTSUNNY   75  64  68 SW12      29.61F
ASHFORD*         N/A     75  66  73 SW3       29.63S
DOTHAN         CLOUDY    71  69  93 W12       29.63S
PANAMA CITY    LGT RAIN  75  72  90 SW10      29.61F

$$





USA.gov is the U.S. government's official web portal to all federal, state and local government web resources and services.